Find Local Weather

World > North America > United States > Kentucky

Elizabethtown, Kentucky Regional Weather

Lat: 37.70N, Lon: 85.87W
Wx Zone: KYZ028
Feedback
Expires:201810231600;;617888
ASUS43 KLMK 231510
RWRKY 
KENTUCKY REGIONAL WEATHER ROUNDUP
NATIONAL WEATHER SERVICE LOUISVILLE KY
1100 AM EDT TUE OCT 23 2018

NOTE "FAIR" INDICATES FEW OR NO CLOUDS BELOW 12,000 FEET
WITH NO SIGNIFICANT WEATHER AND/OR OBSTRUCTIONS TO VISIBILITY.


KYZ024-025-028>034-038-045-046-053-231600-
NORTH CENTRAL KENTUCKY
  
CITY           SKY/WX    TMP DP  RH WIND       PRES   REMARKS
LOUISVILLE/SDF FAIR      56  41  57 W3        30.24R                  
LOUISVILLE/LOU FAIR      57  43  59 W3        30.24R                  
FORT KNOX      FAIR      55  41  59 W3        30.25R                  
$$


SKY/WX - Weather  TMP - Temperature  DP - Dew Point  RH - Relative Humidity
WIND - Wind Direction/Speed PRES - Barometric Pressure